sat.trackr.live / text

‹ back to catalog

LUCH 5V (SDCM/PRN 141)

NORAD 39727 · 2014-023A

PAYLOAD ACTIVE UNKNOWN

§ Identity

Operator
Country
CIS
Launch date
2014-04-28
Launch site
TYMSC
Launch vehicle
Mass (kg)
RCS (m²)
22.59

Purposes: comms, earth_obs, nav

External: N2YO · Heavens-Above · Gunter

§ Orbital elements

Epoch: 2026-09-20T00:15:46.867104Z

Period
1,436.14 min
Inclination
5.3637°
Eccentricity
0.0002731
Mean motion
1.00268942 rev/d
Perigee alt
35,775.9 km
Apogee alt
35,798.9 km
Semi-major
42,165.5 km
B*
0.0000e+0
RAAN
68.7043°
Arg perigee
139.1245°
Mean anomaly
249.7310°
Rev number
4,531

§ Raw data

LUCH 5V (SDCM/PRN 141)1 39727U 14023A   26263.01095911 -.00000270  00000+0  00000+0 0  99912 39727   5.3637  68.7043 0002731 139.1245 249.7310  1.00268942 45311

JSON: /api/v1/satellites/39727 · /tle

For live sub-satellite position, see the globe view (requires WebGL).

§ Visibility from observer

Set your observer location to see the next 7 days of passes ≥ 10°. The values pass through the URL so the page stays shareable.

No JS? Fill the form by hand. The geolocation button needs JavaScript.